Location: Betra
(48.4113°N, 8.6634°E)
Time: 17:04:34
(UTC+00:00)

Resurs 1-4 Rocket - Pass Details

Date: 14 August 2024
Orbit: 798 x 813 km, 98.7° (Epoch: 06 September)

Event Time Altitude Azimuth Distance (km) Brightness Sun altitude
Rises 00:53:51 0° 20° (NNE) 3,343 6.7 -24.6°
Reaches altitude 10° 00:56:22 10° 28° (NNE) 2,405 5.6 -24.5°
Maximum altitude 01:01:21 40° 98° (E) 1,177 3.0 -24.1°
Enters shadow 01:02:58 32° 137° (SE) 1,358 3.0 -24.0°
